Weather History for Oslo Airport, Norway

Change the Weather History Date:

Tuesday, December 10, 2013

  Actual Average Record
Temperature  
Mean Temperature 28 °F -  
Max Temperature 33 °F 29 °F 44 °F (2000)
Min Temperature 24 °F 18 °F 5 °F (2010)
Degree Days  
Heating Degree Days 36    
Moisture  
Dew Point 30 °F    
Average Humidity 98    
Maximum Humidity 100    
Minimum Humidity 93    
Precipitation  
Precipitation 0.01 in 0.08 in - ()
Sea Level Pressure  
Sea Level Pressure 30.16 in    
Wind  
Wind Speed 4 mph ()    
Max Wind Speed 8 mph    
Max Gust Speed -    
Visibility 0.7 miles    
Events Fog , Rain , Snow    
Averages and records for this station are not official NWS values.
T = Trace of Precipitation, MM = Missing Value Source: Averaged Metar Reports

Daily Weather History Graph

Daily Weather History Graph

Search for Another Location

Airport:

Trip Planner

Search our weather history database for the weather conditions in past years. The results will help you decide how hot, cold, wet, or windy it might be!

Date:

Astronomy

Dec. 10, 2013 Rise Set
Actual Time 9:08 AM CET 3:08 PM CET
Civil Twilight 8:11 AM CET 4:05 PM CET
Nautical Twilight 7:14 AM CET 5:02 PM CET
Astronomical Twilight 6:22 AM CET 5:53 PM CET
Moon 12:33 PM CET (12/10) 12:27 AM CET (12/10)
Length of Visible Light 7h 54m
Length of Day
5h 59m
First Quarter, 59% of the Moon is Illuminated
Dec 10
First Quarter
Dec 17
Full
Dec 25
Last Quarter
Jan 1
New
Jan 8
First Quarter

Hourly Weather History & Observations

Time (CET) Temp. Windchill Dew Point Humidity Pressure Visibility Wind Dir Wind Speed Gust Speed Precip Events Conditions
12:20 AM 24.8 °F 20.5 °F 24.8 °F 100% 30.21 in 1.5 mi SW 3.5 mph - N/A Fog Light Freezing Drizzle
12:50 AM 26.6 °F - 24.8 °F 93% 30.18 in 1.6 mi WSW 2.3 mph - N/A   Light Freezing Rain
1:00 AM 27 °F - 27 °F 99%  in 2 mi South 4.5 mph - - Rain Light Freezing Drizzle
1:20 AM 26.6 °F - 24.8 °F 93% 30.18 in - SSW 2.3 mph - N/A Snow Light Snow
1:50 AM 26.6 °F 22.6 °F 26.6 °F 100% 30.18 in 1.6 mi SSW 3.5 mph - N/A Snow Light Snow Showers
3:20 AM 28.4 °F 24.6 °F 26.6 °F 93% 30.18 in 0.8 mi South 3.5 mph - N/A   Mist
3:50 AM 28.4 °F 23.3 °F 26.6 °F 93% 30.18 in 1.0 mi South 4.6 mph - N/A Snow Light Snow
4:20 AM 30.2 °F 25.4 °F 28.4 °F 93% 30.18 in 0.6 mi South 4.6 mph - N/A Fog Light Freezing Fog
4:50 AM 30.2 °F 22.6 °F 30.2 °F 100% 30.15 in 0.5 mi South 8.1 mph - N/A Fog Light Freezing Fog
5:20 AM 30.2 °F 25.4 °F 30.2 °F 100% 30.15 in 0.6 mi South 4.6 mph - N/A Fog Light Freezing Fog
5:50 AM 30.2 °F 25.4 °F 30.2 °F 100% 30.15 in 0.6 mi SSW 4.6 mph - N/A Fog Light Freezing Fog
6:20 AM 32.0 °F 25.6 °F 30.2 °F 93% 30.15 in 1.0 mi South 6.9 mph - N/A   Overcast
6:50 AM 32.0 °F 24.8 °F 32.0 °F 100% 30.18 in 1.5 mi SSW 8.1 mph - N/A   Overcast
7:00 AM 32 °F - 32 °F 99%  in 1 mi SSW 6.7 mph - -   Mist
7:20 AM 30.2 °F 24.3 °F 30.2 °F 100% 30.18 in 1.3 mi SW 5.8 mph - N/A   Overcast
7:50 AM 32.0 °F 27.5 °F 32.0 °F 100% 30.15 in 0.7 mi SW 4.6 mph - N/A   Overcast
8:20 AM 32.0 °F 28.7 °F 32.0 °F 100% 30.15 in - SSW 3.5 mph - N/A   Overcast
8:50 AM 32.0 °F 26.4 °F 32.0 °F 100% 30.15 in 0.6 mi SW 5.8 mph - N/A   Mostly Cloudy
9:20 AM 32.0 °F 26.4 °F 32.0 °F 100% 30.15 in 2.5 mi SW 5.8 mph - N/A   Mostly Cloudy
9:50 AM 32.0 °F 28.7 °F 32.0 °F 100% 30.15 in 0.4 mi SW 3.5 mph - N/A Fog Fog
10:20 AM 32.0 °F - 32.0 °F 100% 30.15 in 0.2 mi SW 2.3 mph - N/A Fog Fog
10:50 AM 32.0 °F 28.7 °F 32.0 °F 100% 30.15 in - SSW 3.5 mph - N/A Fog Fog
11:20 AM 32.0 °F 28.7 °F 32.0 °F 100% 30.15 in 0.2 mi SSW 3.5 mph - N/A Fog Fog
11:50 AM 32.0 °F - 32.0 °F 100% 30.15 in 0.2 mi Variable 1.2 mph - N/A Fog Fog
12:20 PM 32.0 °F 27.5 °F 32.0 °F 100% 30.15 in - SW 4.6 mph - N/A Fog Fog
12:50 PM 32.0 °F - 32.0 °F 100% 30.15 in 0.3 mi Variable 2.3 mph - N/A Fog Fog
1:00 PM 33 °F - 33 °F 97%  in 0 mi SSW 4.5 mph - - Fog Heavy Fog
1:20 PM 32.0 °F - 32.0 °F 100% 30.15 in 0.2 mi Variable 1.2 mph - N/A Fog Fog
1:50 PM 32.0 °F 28.7 °F 32.0 °F 100% 30.15 in 0.3 mi South 3.5 mph - N/A Fog Fog
2:20 PM 32.0 °F 26.4 °F 32.0 °F 100% 30.15 in 0.6 mi SSW 5.8 mph - N/A Fog Fog
2:50 PM 32.0 °F 28.7 °F 32.0 °F 100% 30.15 in - SSW 3.5 mph - N/A Fog Fog
3:20 PM 32.0 °F 28.7 °F 32.0 °F 100% 30.15 in 0.3 mi SW 3.5 mph - N/A Fog Fog
3:50 PM 32.0 °F - 30.2 °F 93% 30.15 in 0.3 mi Calm Calm - N/A Fog Light Freezing Fog
4:20 PM 32.0 °F - 30.2 °F 93% 30.15 in - Variable 1.2 mph - N/A Fog Light Freezing Fog
4:50 PM 32.0 °F 28.7 °F 32.0 °F 100% 30.12 in - SW 3.5 mph - N/A Fog Light Freezing Fog
5:20 PM 32.0 °F 27.5 °F 30.2 °F 93% 30.12 in 0.3 mi SW 4.6 mph - N/A Fog Light Freezing Fog
5:50 PM 32.0 °F - 32.0 °F 100% 30.15 in - Calm Calm - N/A Fog Light Freezing Fog
6:20 PM 32.0 °F 27.5 °F 32.0 °F 100% 30.15 in 0.3 mi South 4.6 mph - N/A Fog Light Freezing Fog
6:50 PM 32.0 °F 27.5 °F 32.0 °F 100% 30.15 in - SSW 4.6 mph - N/A Fog Light Freezing Fog
7:00 PM 32 °F - 32 °F 98%  in 0 mi SW 6.7 mph - - Fog Heavy Fog
7:20 PM 30.2 °F 25.4 °F 30.2 °F 100% 30.15 in 0.3 mi SW 4.6 mph - N/A Fog Light Freezing Fog
7:50 PM 30.2 °F 25.4 °F 30.2 °F 100% 30.15 in 0.4 mi West 4.6 mph - N/A Fog Light Freezing Fog
8:20 PM 30.2 °F - 30.2 °F 100% 30.15 in 0.4 mi Variable 2.3 mph - N/A Fog Light Freezing Fog
8:50 PM 30.2 °F - 30.2 °F 100% 30.15 in 0.4 mi Variable 2.3 mph - N/A Fog Light Freezing Fog
9:20 PM 30.2 °F 26.7 °F 30.2 °F 100% 30.15 in 0.6 mi East 3.5 mph - N/A Fog Light Freezing Fog
9:50 PM 30.2 °F 25.4 °F 30.2 °F 100% 30.15 in 0.4 mi SSW 4.6 mph - N/A Fog Light Freezing Fog
10:20 PM 30.2 °F - 30.2 °F 100% 30.15 in - Variable 1.2 mph - N/A Fog Light Freezing Fog
10:50 PM 30.2 °F - 28.4 °F 93% 30.15 in - Variable 1.2 mph - N/A Fog Light Freezing Fog
11:20 PM 28.4 °F - 28.4 °F 100% 30.15 in 0.2 mi Variable 1.2 mph - N/A Fog Light Freezing Fog
11:50 PM 28.4 °F - 28.4 °F 100% 30.15 in 0.2 mi Variable 2.3 mph - N/A Fog Light Freezing Fog